Retour au catalogue

THOR ABLESTAR DEB

ActifLEO
NORAD 245·DEBRIS·🇺🇸 United States

Lancé Jun 29, 1961 depuis Cape Canaveral Space Force Station

Loading…

Prochains Passages (prochaines 24 heures)

TLE

FraisSource: Space-Track

Époque: Sep 6, 2026, 04:21 UTC

1 00245U 61015CA  26249.18179180 -.00000024  00000-0  30720-4 0  9995
2 00245  66.1043 318.6516 0046280 162.7589 197.5083 14.18284689339369

Suivez THOR ABLESTAR DEB en temps réel avec AllMySat

Download on the App Store